[[{"header":{"parameterUnit":"m.s-1","parameterCategory":1,"la1":30.2991,"la2":30.254,"lo1":-89.0895,"lo2":-89.0444,"dy":0.0017,"dx":0.0017,"nx":28,"ny":28,"refTime":"2023-08-01T09:00:00:Z","depth":0,"parameterNumber":2,"parameterNumberName":"U-component_of_WINDS"},"data":[0,0,0,0,0,0,0,0,0,0,0,0,0,0,0,0,0,0,0,0,0,0,0,0,0,0,0,0,0,0,0,0,0,0,0,0,0,0,0,0,0,0,0,0,0,0,0,0,0,0,0,0,0,0,0,0,0,0,-0.5921,-0.5921,0,-0.5949,-0.5949,-0.5949,-0.5939,-0.5939,-0.5938,-0.5938,-0.5968,-0.5969,-0.597,0,0,0,0,0,0,0,0,0,0,0,0,0,-0.586,-0.5861,-0.5921,-0.5921,-0.5922,-0.5949,-0.5949,-0.5949,-0.594,-0.5939,-0.5938,-0.5937,-0.5967,-0.5969,-0.597,0,0,0,0,0,0,0,0,0,0,0,0,0,-0.5887,-0.5861,-0.5921,-0.592,-0.592,-0.5949,-0.5949,-0.595,-0.594,-0.5939,-0.5938,-0.5937,-0.5967,-0.5969,-0.5971,-0.6002,0,0,-0.5977,-0.5978,0,0,0,0,0,0,0,0,-0.5885,-0.5889,-0.592,-0.592,-0.592,-0.594,-0.5938,-0.5967,-0.594,-0.5932,-0.5938,-0.5936,-0.5959,-0.5962,-0.5969,-0.6004,-0.6005,-0.5977,-0.5978,-0.5979,-0.598,0,0,0,0,0,0,0,-0.5883,-0.5888,-0.5932,-0.592,-0.5921,-0.5918,-0.5921,-0.5944,-0.5951,-0.5933,-0.5932,-0.5936,-0.5959,-0.5967,-0.597,-0.6005,-0.5977,-0.5979,-0.598,-0.5981,-0.6065,-0.6066,0,0,0,0,0,0,-0.5881,-0.5886,-0.5931,-0.5933,-0.59,-0.592,-0.5923,-0.5934,-0.595,-0.5952,-0.5936,-0.5935,-0.5964,-0.5967,-0.5971,-0.6008,-0.5979,-0.5981,-0.5982,-0.6064,-0.6066,-0.6067,0,0,0,0,0,0,-0.588,-0.5885,-0.593,-0.5909,-0.5915,-0.5922,-0.5935,-0.5935,-0.5943,-0.5953,-0.5954,-0.5943,-0.5963,-0.5968,-0.5994,-0.6009,-0.5982,-0.5984,-0.6063,-0.6065,-0.6066,-0.6083,0,0,0,0,0,0,-0.5878,-0.5885,-0.5897,-0.591,-0.5916,-0.5953,-0.5936,-0.5937,-0.5947,-0.5945,-0.596,-0.5961,-0.5963,-0.5991,-0.5996,-0.6011,-0.5986,-0.6062,-0.6064,-0.6066,-0.6082,-0.6085,-0.6089,0,0,0,0,0,-0.5876,-0.5902,-0.5898,-0.5903,-0.5931,-0.5954,-0.5957,-0.5959,-0.5948,-0.596,-0.5966,-0.5961,-0.6006,-0.5994,-0.5999,-0.6016,-0.6061,-0.6063,-0.6066,-0.608,-0.6085,-0.6088,0,0,0,0,0,0,-0.5892,-0.5903,-0.5899,-0.593,-0.5941,-0.5952,-0.5968,-0.5963,-0.5978,-0.5976,-0.5977,-0.5981,-0.6007,-0.6014,-0.6,-0.6046,-0.6032,-0.6036,-0.6041,-0.6046,-0.6049,-0.6047,-0.5987,0,0,0,0,0,-0.5899,-0.5916,-0.5925,-0.5951,-0.5956,-0.5961,-0.5971,-0.597,-0.5982,-0.5987,-0.5995,-0.6007,-0.6023,-0.6035,-0.6051,-0.6082,-0.6085,-0.6096,-0.6099,-0.6102,-0.6105,-0.6121,-0.6126,-0.6074,-0.6074,-0.6074,0,0,-0.5914,-0.5922,-0.5933,-0.5954,-0.5963,-0.598,-0.5965,-0.5985,-0.5998,-0.599,-0.6015,-0.6021,-0.6034,-0.6063,-0.6076,-0.6069,-0.612,-0.6105,-0.6107,-0.6109,-0.6124,-0.6129,-0.6133,-0.6076,-0.6075,-0.6075,0,0,-0.595,-0.5958,-0.598,-0.5988,-0.6,-0.6003,-0.6008,-0.6019,-0.6023,-0.6047,-0.6042,-0.6057,-0.6086,-0.6095,-0.6104,-0.614,-0.6136,-0.6146,-0.6164,-0.618,-0.6184,-0.6188,-0.62,-0.6205,-0.6149,-0.6149,-0.6149,0,-0.5967,-0.5993,-0.5992,-0.6011,-0.602,-0.6013,-0.6035,-0.6043,-0.606,-0.6067,-0.6059,-0.6094,-0.6102,-0.6132,-0.6141,-0.6148,-0.6154,-0.6145,-0.6183,-0.6187,-0.619,-0.6203,-0.6208,-0.615,-0.615,-0.615,-0.6149,0,-0.6013,-0.6031,-0.6047,-0.6063,-0.6074,-0.6095,-0.6096,-0.6107,-0.6105,-0.6108,-0.6133,-0.6142,-0.6159,-0.6166,-0.6165,-0.6195,-0.6191,-0.6183,-0.6169,-0.6196,-0.6208,-0.6213,-0.6151,-0.6151,-0.6151,-0.615,0,0,-0.6063,-0.6075,-0.6081,-0.6088,-0.61,-0.6113,-0.6133,-0.6149,-0.6158,-0.617,-0.6186,-0.621,-0.6202,-0.6211,-0.6211,-0.6224,-0.6252,-0.6215,-0.6215,-0.6221,-0.6286,-0.6292,-0.6298,-0.6248,-0.6249,-0.625,-0.6285,0,-0.61,-0.6134,-0.6132,-0.6164,-0.618,-0.6172,-0.6189,-0.6198,-0.6201,-0.6215,-0.6218,-0.6234,-0.6223,-0.6229,-0.6241,-0.6246,-0.6265,-0.6243,-0.6264,-0.6265,-0.6262,-0.6304,-0.6311,-0.6343,-0.6289,-0.629,-0.629,0,-0.6148,-0.616,-0.6193,-0.6201,-0.6208,-0.6223,-0.6237,-0.625,-0.626,-0.6261,-0.627,-0.6266,-0.6286,-0.627,-0.6297,-0.6282,-0.629,-0.6293,-0.6294,-0.6297,-0.628,-0.6308,-0.6354,-0.6359,-0.6298,-0.6297,-0.6297,0,-0.6181,-0.6205,-0.6227,-0.6233,-0.6243,-0.6254,-0.6259,-0.6267,-0.6276,-0.6288,-0.6293,-0.6307,-0.6315,-0.6326,-0.6326,-0.6315,-0.6353,-0.6337,-0.6354,-0.6354,-0.6364,-0.6363,-0.6412,-0.6368,-0.6368,-0.6367,-0.6367,0,-0.6223,-0.6244,-0.6242,-0.6256,-0.6279,-0.6276,-0.6298,-0.6302,-0.6309,-0.6324,-0.6317,-0.6331,-0.6329,-0.6343,-0.6343,-0.6365,-0.6368,-0.637,-0.637,-0.6371,-0.6371,-0.6377,-0.6375,-0.6369,-0.6368,-0.6368,-0.6368,0,-0.6264,-0.6263,-0.6288,-0.6294,-0.6296,-0.6312,-0.6318,-0.6331,-0.6332,-0.6351,-0.6355,-0.6357,-0.6372,-0.6373,-0.6391,-0.6391,-0.6417,-0.6415,-0.6414,-0.6414,-0.6431,-0.6429,-0.6486,-0.6493,-0.6444,-0.6444,-0.6444,0,-0.6291,-0.6307,-0.6314,-0.6323,-0.6328,-0.6342,-0.6351,-0.6348,-0.6357,-0.6368,-0.6379,-0.6394,-0.6406,-0.6431,-0.6434,-0.6448,-0.6445,-0.6464,-0.6448,-0.6448,-0.6446,-0.6445,-0.6446,-0.6468,-0.6468,-0.6469,-0.6469,0,-0.6339,-0.6338,-0.635,-0.6362,-0.6372,-0.6382,-0.6391,-0.6398,-0.6396,-0.6407,-0.6422,-0.6431,-0.6448,-0.6463,-0.6475,-0.648,-0.6474,-0.6474,-0.6479,-0.648,-0.6479,-0.648,-0.6424,-0.6473,-0.6473,-0.6472,-0.6472,-0.6472,-0.6375,-0.6387,-0.6394,-0.6408,-0.6414,-0.6421,-0.6434,-0.6435,-0.6448,-0.6462,-0.6459,-0.6476,-0.6483,-0.6499,-0.6505,-0.6518,-0.6511,-0.6518,-0.652,-0.6522,-0.6524,-0.6476,-0.652,-0.652,-0.652,-0.652,-0.652,0,-0.6423,-0.6426,-0.6438,-0.645,-0.646,-0.6452,-0.6461,-0.647,-0.6485,-0.6492,-0.6503,-0.652,-0.6533,-0.6537,-0.6549,-0.6559,-0.6557,-0.6563,-0.6562,-0.6563,-0.6529,-0.6523,-0.6564,-0.6564,-0.6564,-0.6564,-0.6564,-0.6564,-0.6449,-0.647,-0.6469,-0.6492,-0.6496,-0.6511,-0.6517,-0.6524,-0.6529,-0.6548,-0.6559,-0.656,-0.6566,-0.6578,-0.659,-0.6591,-0.6596,-0.6603,-0.6603,-0.657,-0.6566,-0.6562,-0.6557,-0.6604,-0.6604,-0.6636,-0.6636,-0.6637]},{"header":{"parameterUnit":"m.s-1","parameterCategory":1,"la1":30.2991,"la2":30.254,"lo1":-89.0895,"lo2":-89.0444,"dy":0.0017,"dx":0.0017,"nx":28,"ny":28,"refTime":"2023-08-01T09:00:00:Z","depth":0,"parameterNumber":3,"parameterNumberName":"V-component_of_WINDS"},"data":[0,0,0,0,0,0,0,0,0,0,0,0,0,0,0,0,0,0,0,0,0,0,0,0,0,0,0,0,0,0,0,0,0,0,0,0,0,0,0,0,0,0,0,0,0,0,0,0,0,0,0,0,0,0,0,0,0,0,-2.1906,-2.1907,0,-2.2023,-2.2025,-2.2026,-2.2049,-2.2048,-2.2048,-2.2047,-2.2165,-2.2169,-2.2173,0,0,0,0,0,0,0,0,0,0,0,0,0,-2.1699,-2.1703,-2.1906,-2.1907,-2.1909,-2.2023,-2.2025,-2.2026,-2.2049,-2.2048,-2.2047,-2.2046,-2.2163,-2.2168,-2.2173,0,0,0,0,0,0,0,0,0,0,0,0,0,-2.18,-2.1704,-2.1905,-2.1934,-2.1938,-2.2023,-2.2025,-2.2027,-2.205,-2.2048,-2.2047,-2.2046,-2.2162,-2.2168,-2.2174,-2.2238,0,0,-2.2192,-2.2194,0,0,0,0,0,0,0,0,-2.1794,-2.1808,-2.1928,-2.1932,-2.1937,-2.202,-2.1995,-2.2097,-2.205,-2.2007,-2.2047,-2.2045,-2.2118,-2.2127,-2.2152,-2.2243,-2.2248,-2.2192,-2.2196,-2.2199,-2.22,0,0,0,0,0,0,0,-2.1787,-2.1803,-2.1952,-2.193,-2.1935,-2.194,-2.1953,-2.2015,-2.2068,-2.2011,-2.2013,-2.2026,-2.212,-2.2146,-2.2155,-2.225,-2.2192,-2.2198,-2.2201,-2.2204,-2.2401,-2.2402,0,0,0,0,0,0,-2.1775,-2.1797,-2.1948,-2.1956,-2.1861,-2.1945,-2.196,-2.1995,-2.2068,-2.2078,-2.2028,-2.2027,-2.2137,-2.2148,-2.2159,-2.2241,-2.2199,-2.2204,-2.2208,-2.2399,-2.2401,-2.2403,0,0,0,0,0,0,-2.1771,-2.1789,-2.1944,-2.1877,-2.1897,-2.195,-2.199,-2.1998,-2.2025,-2.2081,-2.209,-2.2045,-2.2136,-2.2151,-2.2219,-2.2245,-2.2207,-2.2212,-2.2397,-2.24,-2.2402,-2.2403,0,0,0,0,0,0,-2.1765,-2.1787,-2.1812,-2.1877,-2.19,-2.2002,-2.1991,-2.2001,-2.2035,-2.2036,-2.21,-2.2109,-2.2136,-2.2209,-2.2224,-2.2253,-2.2217,-2.2395,-2.2398,-2.2401,-2.2401,-2.2405,-2.2409,0,0,0,0,0,-2.1758,-2.1807,-2.1814,-2.1832,-2.1933,-2.2003,-2.2016,-2.2047,-2.2037,-2.2063,-2.2099,-2.2107,-2.2239,-2.2216,-2.2233,-2.2264,-2.2394,-2.2397,-2.2401,-2.2399,-2.2404,-2.2409,0,0,0,0,0,0,-2.1743,-2.1816,-2.1824,-2.1896,-2.1943,-2.2007,-2.2041,-2.2052,-2.2102,-2.21,-2.2136,-2.215,-2.2216,-2.2246,-2.2219,-2.233,-2.2316,-2.2323,-2.2309,-2.2314,-2.2318,-2.231,-2.2222,0,0,0,0,0,-2.1749,-2.18,-2.186,-2.1918,-2.1941,-2.1987,-2.2018,-2.2038,-2.2088,-2.2108,-2.2149,-2.2196,-2.2249,-2.2283,-2.2334,-2.2405,-2.242,-2.2434,-2.2438,-2.2441,-2.2447,-2.2489,-2.2496,-2.2415,-2.2415,-2.2415,0,0,-2.176,-2.1806,-2.1836,-2.1917,-2.1955,-2.2008,-2.2003,-2.2058,-2.2097,-2.2116,-2.2183,-2.2215,-2.227,-2.234,-2.2373,-2.2367,-2.2473,-2.2446,-2.2448,-2.2453,-2.2493,-2.2501,-2.2508,-2.2418,-2.2417,-2.2417,0,0,-2.1808,-2.1848,-2.1901,-2.194,-2.2,-2.2029,-2.2042,-2.2104,-2.2126,-2.2194,-2.221,-2.2256,-2.2345,-2.2385,-2.2416,-2.2479,-2.2489,-2.2494,-2.2516,-2.2556,-2.2562,-2.2568,-2.2593,-2.2601,-2.25,-2.25,-2.25,0,-2.1815,-2.1895,-2.1927,-2.1982,-2.2017,-2.2037,-2.2092,-2.2128,-2.22,-2.2224,-2.2216,-2.233,-2.2368,-2.2448,-2.2464,-2.2488,-2.2504,-2.2488,-2.2559,-2.2565,-2.2571,-2.2595,-2.2603,-2.2501,-2.2501,-2.2501,-2.2501,0,-2.1901,-2.1956,-2.1992,-2.2063,-2.2102,-2.2156,-2.2196,-2.2231,-2.2248,-2.2278,-2.2347,-2.2394,-2.2456,-2.2476,-2.2492,-2.2559,-2.2554,-2.2552,-2.2539,-2.2579,-2.2602,-2.2611,-2.2502,-2.2501,-2.2501,-2.2501,0,0,-2.1945,-2.2033,-2.2046,-2.2079,-2.2146,-2.2189,-2.2243,-2.2305,-2.2335,-2.2384,-2.2432,-2.2507,-2.2506,-2.2542,-2.2562,-2.2597,-2.2646,-2.2591,-2.2593,-2.2601,-2.2724,-2.2727,-2.2736,-2.2652,-2.2653,-2.2655,-2.272,0,-2.2003,-2.2103,-2.2134,-2.2218,-2.2269,-2.2289,-2.2337,-2.2382,-2.2412,-2.246,-2.2492,-2.2546,-2.254,-2.2562,-2.2597,-2.2632,-2.2671,-2.2628,-2.2697,-2.2699,-2.2685,-2.2748,-2.2751,-2.281,-2.2729,-2.2731,-2.2732,0,-2.2084,-2.2136,-2.2226,-2.2287,-2.231,-2.2352,-2.2412,-2.2457,-2.2509,-2.2528,-2.2568,-2.2586,-2.2644,-2.2626,-2.2706,-2.2676,-2.2706,-2.2727,-2.2731,-2.274,-2.2719,-2.2761,-2.283,-2.284,-2.2746,-2.2745,-2.2744,0,-2.211,-2.2202,-2.2268,-2.2295,-2.2367,-2.2397,-2.2428,-2.2479,-2.2515,-2.2566,-2.2589,-2.2645,-2.2677,-2.272,-2.2752,-2.2736,-2.2831,-2.2815,-2.2849,-2.2848,-2.287,-2.2869,-2.2947,-2.2885,-2.2885,-2.2885,-2.2885,0,-2.2173,-2.2227,-2.228,-2.2321,-2.2383,-2.2416,-2.2476,-2.2508,-2.2554,-2.2601,-2.2619,-2.2663,-2.2702,-2.2751,-2.2776,-2.284,-2.2853,-2.2871,-2.2877,-2.287,-2.2869,-2.2892,-2.2889,-2.2887,-2.2887,-2.2886,-2.2886,0,-2.2213,-2.225,-2.2324,-2.2387,-2.2403,-2.2446,-2.25,-2.254,-2.257,-2.2629,-2.2645,-2.2692,-2.2751,-2.2787,-2.286,-2.2877,-2.2948,-2.2952,-2.2931,-2.2935,-2.2967,-2.2965,-2.3065,-2.3081,-2.3007,-2.3007,-2.3008,0,-2.2252,-2.2294,-2.2362,-2.2395,-2.2427,-2.248,-2.2517,-2.2551,-2.2588,-2.2651,-2.2684,-2.2744,-2.2794,-2.2886,-2.2926,-2.2983,-2.2989,-2.3021,-2.2998,-2.299,-2.2992,-2.299,-2.2996,-2.3025,-2.3026,-2.3026,-2.3027,0,-2.2317,-2.2334,-2.2386,-2.2445,-2.2488,-2.2536,-2.2584,-2.2609,-2.2652,-2.2692,-2.2753,-2.2792,-2.2867,-2.2927,-2.2987,-2.3019,-2.303,-2.3033,-2.3044,-2.3039,-2.3026,-2.3036,-2.2944,-2.3031,-2.3031,-2.303,-2.303,-2.303,-2.2359,-2.2399,-2.2453,-2.251,-2.255,-2.2594,-2.2636,-2.2671,-2.2723,-2.2788,-2.2804,-2.2868,-2.2919,-2.3002,-2.3034,-2.3085,-2.308,-2.3096,-2.31,-2.3104,-2.3106,-2.3016,-2.3095,-2.3095,-2.3095,-2.3095,-2.3095,0,-2.2428,-2.2463,-2.2516,-2.2583,-2.2628,-2.2635,-2.2688,-2.2726,-2.2782,-2.2829,-2.2878,-2.2948,-2.3006,-2.3051,-2.311,-2.3141,-2.3148,-2.3156,-2.3155,-2.3163,-2.3106,-2.3091,-2.315,-2.315,-2.315,-2.315,-2.315,-2.315,-2.2469,-2.2537,-2.2559,-2.2647,-2.2682,-2.2746,-2.2776,-2.2816,-2.2854,-2.2932,-2.2981,-2.301,-2.3056,-2.3119,-2.3172,-2.3184,-2.3206,-2.3213,-2.3226,-2.3172,-2.3166,-2.3161,-2.3147,-2.3217,-2.3217,-2.3279,-2.3279,-2.328]}]]